Location: Newark
(37.3333°N, 6.0167°W)
Time: 08:27:22
(UTC+00:00)

LightSail 2 - Pass Details

Date: 19 November 2019
Orbit: 696 x 730 km, 24.0° (Epoch: 14 December)

Event Time Altitude Azimuth Distance (km) Brightness Sun altitude
Exits shadow 04:33:54 12° 172° (S) 2,082 7.6 -30.3°
Drops below altitude 10° 04:34:41 10° 164° (SSE) 2,203 7.8 -30.2°
Sets 04:38:23 0° 138° (SE) 3,127 9.1 -29.4°
